Regional Weather Roundup
Issued by NWS Cleveland, OH

Home | Current Version | Previous Version | Graphics & Text | Print | Product List | Glossary On
Versions: 1 2 3 4 5 6 7 8 9 10 11 12 13 14 15 16 17 18 19 20 21 22 23 24 25 26 27 28 29 30 31 32 33 34 35 36 37 38 39 40 41 42 43 44 45 46 47 48 49 50
852
ASUS41 KCLE 291902
RWRCLE
OHIO REGIONAL WEATHER ROUNDUP
NATIONAL WEATHER SERVICE CLEVELAND, OH
300 PM EDT MON AUG 29 2016

NOTE: "FAIR" INDICATES FEW OR NO CLOUDS BELOW 12,000 FEET WITH NO
SIGNIFICANT WEATHER AND/OR OBSTRUCTIONS TO VISIBILITY.

OHZ001>008-015>018-024>027-034-035-043-044-292000-
   NORTHWEST OHIO

CITY           SKY/WX    TMP DP  RH WIND       PRES   REMARKS
DEFIANCE       MOSUNNY   84  68  58 E3        30.25F
FINDLAY        MOSUNNY   85  65  51 SE5       30.24F
TOLEDO EXPRESS MOSUNNY   82  68  62 E6        30.25F
TOLEDO EXEC    MOSUNNY   80  68  66 NE8       30.27F
LIMA           MOSUNNY   85  71  63 NE5       30.25F HX  90
$$

OHZ009>014-019>023-028>033-038-089-292000-
   NORTHEAST OHIO

CITY           SKY/WX    TMP DP  RH WIND       PRES   REMARKS
CLE-HOPKINS    SUNNY     83  60  45 N12       30.27F
CLE-LAKEFRONT  SUNNY     80  63  55 N16       30.25F
CUY CO. ARPT   MOSUNNY   81  64  57 N16       30.27S
LORAIN-ELYRIA  SUNNY     82  60  47 N8        30.26F
ASHTABULA      SUNNY     80  58  46 VRB7      30.27F
AKRON-CANTON   MOSUNNY   84  57  39 E5        30.25F
WOOSTER        SUNNY     82  63  52 NE5       30.26F
MANSFIELD      SUNNY     85  61  44 VRB5      30.27F
YOUNGSTOWN     MOSUNNY   83  59  44 N10       30.25F
$$

OHZ042-051>053-060>062-070>072-077>081-292000-
  SOUTHWEST OHIO

CITY           SKY/WX    TMP DP  RH WIND       PRES   REMARKS
CINC-COVINGTON MOSUNNY   89  71  55 E6        30.21F HX  95
CINC-LUNKEN    MOSUNNY   90  72  55 NE5       30.20F HX  97
HAMILTON       MOSUNNY   90  71  53 NE6       30.21F HX  96
DAYTON         MOSUNNY   84  69  60 NE6       30.25F
WRIGHT-PAT AFB PTSUNNY   87  69  54 NE7       30.22F HX  90
DAYTON GENERAL MOSUNNY   86  69  56 E5        30.22F HX  90
WILMINGTON     MOSUNNY   85  70  60 E7        30.23F
$$

OHZ036-037-039>041-045>050-054>059-063>069-073>076-082>088-292000-
  CENTRAL AND SOUTHEAST OHIO

CITY           SKY/WX    TMP DP  RH WIND       PRES   REMARKS
COLUMBUS       MOSUNNY   85  69  58 NE8       30.22F
OSU AIRPORT    SUNNY     86  68  54 VRB3      30.23F
BOLTON FIELD   PTSUNNY   84  73  70 NE6       30.25S HX  91
RICKENBACK AFB PTSUNNY   85  70  59 CALM      30.22F HX  90
NEWARK         PTSUNNY   87  67  51 VRB3      30.23F HX  90
MARION         MOSUNNY   85  67  54 E7        30.26S
LANCASTER      MOSUNNY   85  70  60 NE7       30.23F
ZANESVILLE     SUNNY     86  66  51 MISG      30.23F
NEW PHILLY     SUNNY     89  60  37 NW6       30.24F
$$




USA.gov is the U.S. government's official web portal to all federal, state and local government web resources and services.